Location: *
(35.1500°N, 76.6700°W)
Time: 08:10:01
(UTC+00:00)

Cosmos 2058 Rocket - Pass Details

Date: 13 October 2019
Orbit: 611 x 638 km, 82.5° (Epoch: 17 November)

Event Time Altitude Azimuth Distance (km) Brightness Sun altitude
Rises 23:43:47 0° 184° (S) 2,876 6.5 -15.0°
Reaches altitude 10° 23:46:00 10° 184° (S) 1,971 5.7 -15.4°
Maximum altitude 23:50:22 86° 95° (E) 621 2.9 -16.3°
Drops below altitude 10° 23:54:44 10° 8° (N) 1,974 5.6 -17.2°
Sets 23:56:58 0° 8° (N) 2,882 6.4 -17.6°
